Starlink 31390

operational
NORAD ID: 58937 Int'l Des: 2024-027 Owner: SPXS Country: US Constellation: starlink
LEOCIRCULAR

Starlink 31390について

説明を読み込み中...

リアルタイム位置

3D地球を読み込み中...

次回通過

高度履歴

Altitude vs Time

uPlot chart will show altitude changes over time

軌道要素

1 58937U 24027G 25308.34244492 -.00000861 00000-0 -16937-4 0 9994
2 58937 53.1583 172.0918 0001834 91.8553 268.2657 15.30190379 98139
Epoch: Nov 4, 2025 • Age: 10 hours

現在のステータス

高度 475.0 km
速度 7.63 km/s
衛星直下点 11.38°N, 22.08°E
打ち上げ日 Feb 10, 2024
運用期間 1.7 years
タイプ internet

技術仕様

分類 Payload
質量 730.00 kg
乾燥質量 700.00 kg
総質量 730.00 kg
長さ 0.30 m
直径 4.10 m
スパン 29.00 m
形状 Box + pan
製造者 SPXS
バスタイプ Starlink V2M
フェーズステータス In Orbit
所有者/国 SPXS/US

大規模コンステレーション

Loading constellations...